Location: Heidgraben
(53.7081°N, 9.6576°E)
Time: 10:45:46
(UTC+00:00)

Cosmos 158 Rocket - Pass Details

Date: 05 July 2020
Orbit: 698 x 794 km, 74.0° (Epoch: 05 August)

Event Time Altitude Azimuth Distance (km) Brightness Sun altitude
Exits shadow 22:52:56 10° 216° (SW) 2,140 5.9 -13.3°
Maximum altitude 22:57:44 68° 299° (WNW) 759 4.1 -13.4°
Drops below altitude 10° 23:02:39 10° 23° (NNE) 2,197 7.4 -13.5°
Sets 23:05:02 0° 26° (NNE) 3,131 8.2 -13.5°
